Temperature
30 31 31 31 32 31 31 31 31 31 31 30 30 30 29 28 27 27 26 26 25 24 23 22 21 21 20 20 19 19 19 19 19 18 18 18 18 18 18 18 18 18 18 17
31 31 31 32 31 31 31 31 31 31 30 30 30 30 30 29 28 27 27 26 25 25 24 22 21 21 20 20 20 20 19 19 19 19 19 18 18 18 18 18 18 18 18 18
31 31 31 31 31 31 31 31 31 30 30 30 30 30 29 29 28 27 27 26 26 25 24 23 22 21 21 20 20 20 19 19 19 19 19 18 18 19 18 18 18 18 18 18
31 31 31 31 31 31 31 31 31 31 30 31 30 30 30 29 29 28 27 27 26 25 24 23 22 21 21 21 20 20 20 20 19 19 19 19 19 19 18 18 18 18 18 18
31 30 30 31 31 31 31 31 31 31 31 31 31 30 30 30 29 29 28 27 26 25 24 24 23 22 21 21 20 20 20 20 20 19 19 19 19 19 18 18 18 18 18 18
31 31 31 31 31 31 31 31 31 31 31 30 30 30 29 30 29 29 28 27 26 25 25 24 23 22 21 21 21 20 20 20 20 20 19 19 19 18 18 18 18 19 18 18
30 30 30 30 30 30 31 31 30 30 30 30 30 30 29 29 29 29 28 27 26 25 25 24 23 22 21 21 21 21 20 20 20 20 20 19 19 19 19 19 18 18 18 18
30 30 30 30 30 30 31 31 30 29 30 30 30 29 30 29 28 28 27 27 26 26 25 24 23 22 22 21 21 21 21 20 20 20 20 19 19 19 19 19 18 18 18 18
30 30 30 30 30 30 30 31 32 31 30 30 30 29 29 29 28 28 27 26 26 25 25 24 23 22 22 21 21 21 21 21 20 20 20 20 19 19 19 19 19 18 18 18
31 29 30 30 30 30 30 31 31 30 29 29 29 30 30 28 28 28 27 27 26 25 24 24 23 22 22 22 21 21 21 20 20 20 19 19 19 19 19 19 18 18 18 18
31 30 30 30 30 30 30 30 30 31 30 30 29 29 30 29 28 28 27 26 25 25 24 23 23 22 22 21 21 21 20 20 20 20 19 19 19 19 18 18 18 18 18 18
30 30 30 30 30 30 30 30 30 30 29 29 30 29 29 29 28 27 27 25 25 24 24 23 22 22 21 21 21 21 20 20 19 19 19 19 18 18 18 18 18 17 17 17
29 29 28 29 29 29 29 30 30 30 30 30 29 29 29 28 28 27 26 25 24 23 23 23 22 21 21 21 21 20 20 20 19 19 19 19 18 18 18 18 17 17 17 17
28 29 29 29 29 30 29 29 29 30 30 30 29 29 28 28 27 26 25 24 24 23 22 22 21 21 20 20 20 20 20 19 19 19 18 18 18 18 18 17 17 17 17 17
29 28 29 29 29 30 29 29 29 29 30 30 29 29 29 28 27 26 25 24 23 23 22 21 21 21 20 20 20 19 19 19 19 18 18 18 18 17 17 17 17 17 17 17
28 28 28 28 29 29 29 29 29 29 29 29 29 29 29 27 26 25 24 24 23 22 22 21 21 20 20 20 19 19 19 19 18 18 18 18 17 17 17 17 17 17 16 16
28 27 27 28 28 28 28 28 29 29 29 29 29 28 27 27 26 25 24 23 22 22 21 21 20 20 19 19 19 19 19 19 18 18 18 17 17 17 17 17 17 17 16 16
26 26 27 28 27 26 28 28 28 28 28 28 28 28 27 26 25 24 23 22 22 21 21 20 20 19 19 19 19 19 18 18 18 18 17 17 17 17 17 17 16 16 16 16
26 26 27 27 27 27 27 27 27 27 27 27 27 27 26 25 25 24 22 21 21 20 20 19 19 19 19 19 18 18 18 18 18 17 17 17 17 17 17 16 16 16 16 15
25 25 27 27 26 27 27 27 26 26 26 26 25 25 25 25 26 25 21 20 20 19 19 18 19 19 18 18 18 18 17 17 17 17 17 16 17 16 16 16 16 16 15 15
25 25 26 26 26 27 26 25 25 26 25 24 24 24 24 24 24 22 20 19 19 18 18 18 18 18 18 18 18 17 17 17 17 17 17 16 16 16 16 16 15 15 15 15
26 26 25 26 26 26 24 25 25 24 22 23 23 23 22 22 21 20 19 19 18 18 18 18 17 17 17 17 17 17 17 17 17 17 16 16 16 16 16 15 15 15 15 14
25 25 26 25 25 23 23 23 22 21 22 22 22 21 21 20 20 19 19 18 18 17 17 17 17 17 17 17 17 17 17 17 17 16 16 16 15 15 15 15 15 15 14 14
23 22 24 23 24 23 22 21 21 20 21 21 20 20 20 20 19 18 18 18 17 17 17 17 17 17 16 16 16 16 16 16 16 16 16 15 15 15 15 15 14 14 14 14
23 22 23 23 23 22 21 21 20 20 20 20 20 19 19 19 18 18 17 17 17 17 16 16 16 16 16 16 16 16 15 15 15 15 15 15 15 15 14 14 14 14 14 14
22 22 23 23 22 22 21 20 20 20 19 19 19 19 18 18 18 17 17 16 16 16 16 16 16 16 15 15 15 15 15 15 15 15 15 15 15 14 14 14 14 14 13 13
Wind_Speed
5 6 5 3 3 4 3 2 1 3 3 2 1 1 4 6 6 6 6 7 6 5 5 6 5 5 5 4 4 4 3 2 2 1 1 1 1 1 1 1 2 2 2 2
7 7 3 3 3 4 4 3 1 3 3 1 1 1 3 5 6 6 6 7 6 6 6 6 6 6 6 6 5 5 5 4 3 2 1 1 0 0 1 2 2 1 1 1
9 2 2 5 4 5 4 3 2 1 2 4 2 3 4 5 5 5 6 6 6 6 6 6 7 7 6 6 6 5 4 4 4 3 2 2 2 1 0 1 1 1 0 0
7 4 5 6 5 6 4 2 3 4 5 2 3 1 4 5 5 5 5 5 6 6 6 7 7 7 7 7 6 5 5 4 4 4 3 3 2 1 1 0 1 1 0 0
7 5 6 7 5 5 3 1 4 5 5 4 4 3 3 5 3 4 4 5 5 6 6 7 7 7 7 7 6 6 5 5 4 4 4 4 2 1 1 1 0 1 0 1
7 5 5 4 3 4 3 4 4 6 7 5 3 4 1 2 1 1 3 3 4 5 6 6 6 7 6 7 6 6 6 5 5 5 4 4 3 2 2 2 1 1 1 1
9 9 7 5 6 6 8 8 5 6 5 2 2 3 0 3 2 1 1 2 3 5 6 6 7 7 7 7 7 7 6 6 5 5 5 5 4 4 3 3 2 2 1 1
9 9 8 7 8 6 8 9 6 5 4 2 4 3 2 3 2 2 1 2 3 4 5 6 7 8 7 7 7 7 7 6 6 5 5 4 4 4 3 3 2 2 2 2
7 6 6 5 5 6 6 7 6 7 6 5 2 2 3 3 2 2 2 2 3 3 4 5 6 7 7 7 7 7 7 6 6 5 5 4 4 3 3 2 3 2 2 2
5 6 6 6 6 4 5 5 6 6 5 6 4 4 2 3 2 1 1 1 2 2 3 3 4 5 6 7 7 7 7 6 6 5 4 4 3 3 3 3 2 2 3 3
8 7 7 8 8 7 7 7 6 5 6 7 4 1 2 1 2 2 1 2 2 2 2 3 3 4 5 6 6 6 6 6 5 5 4 3 3 2 2 2 2 2 2 2
8 7 7 7 4 3 7 7 8 7 5 6 6 1 4 2 2 2 2 3 2 2 2 2 3 3 3 4 5 6 6 5 5 4 4 3 3 2 2 1 1 2 2 2
7 6 7 8 8 7 7 7 8 7 7 7 7 1 4 3 2 2 3 3 3 2 2 3 3 2 2 2 4 5 5 5 4 4 4 3 3 2 2 2 2 2 2 2
6 7 8 7 2 5 7 7 8 9 8 7 5 3 3 2 2 2 2 2 2 3 2 2 2 2 1 1 2 3 4 4 4 4 4 3 3 2 2 2 2 2 2 2
6 7 7 6 4 4 6 6 8 9 9 8 5 4 2 2 2 3 3 2 2 2 2 2 2 2 1 1 2 2 3 4 4 4 4 4 3 3 2 2 2 2 2 2
4 5 6 7 5 5 6 6 7 7 7 7 6 3 1 1 3 3 2 2 1 1 2 2 3 2 1 0 1 2 3 3 4 5 4 3 3 3 3 2 2 2 2 2
5 5 7 8 7 7 8 7 7 7 6 6 6 2 1 2 2 2 1 1 1 0 2 2 3 2 2 1 1 2 2 3 4 4 4 4 3 3 3 3 2 3 3 2
4 5 5 6 6 9 3 0 3 4 3 3 2 0 1 2 2 1 1 0 0 1 2 2 2 2 2 1 1 1 2 3 3 4 4 4 4 4 3 3 3 3 3 2
5 6 5 7 9 7 4 2 3 4 4 1 1 0 0 2 2 2 3 3 2 2 2 2 2 2 1 1 0 1 2 2 3 4 4 4 4 4 4 4 3 4 3 3
5 6 7 7 9 8 2 3 1 4 5 2 0 1 1 3 4 1 3 3 3 3 2 2 1 1 1 1 1 2 2 2 2 3 4 4 4 4 4 3 3 3 3 3
8 7 9 10 9 5 3 2 4 6 0 2 0 0 1 2 3 2 2 3 3 2 2 1 1 1 1 1 1 2 1 1 1 2 2 3 3 3 3 2 2 2 3 3
7 7 7 7 9 4 4 2 1 2 3 1 0 1 0 1 2 2 2 2 2 2 2 2 1 1 1 1 1 2 2 1 1 2 2 2 3 3 2 2 2 2 3 3
5 3 3 3 1 4 2 2 2 1 1 0 0 0 0 1 1 1 2 2 2 2 2 2 1 1 1 1 1 2 2 2 2 2 3 3 3 2 2 2 2 3 3 4
4 1 2 2 2 2 1 1 1 1 1 1 1 1 1 1 1 1 1 2 2 3 3 3 2 2 2 2 2 3 2 2 3 3 2 3 3 3 2 2 3 3 3 4
3 4 4 4 2 2 2 1 1 1 1 1 1 1 1 1 1 1 1 2 2 3 3 3 3 2 2 2 2 2 2 2 2 2 2 3 3 3 2 3 2 3 2 2
4 4 5 3 1 2 1 1 1 1 1 1 1 1 1 1 1 2 2 2 2 3 3 3 3 2 2 2 2 2 2 2 2 2 2 3 3 2 3 3 3 1 2 1
Wind_Direction
216 236 235 252 279 307 306 310 32 75 92 194 174 119 143 164 184 189 186 186 190 197 186 183 186 187 184 183 186 192 198 183 186 194 213 172 99 55 54 67 68 63 58 65
222 232 249 256 253 254 260 271 85 107 118 184 150 139 141 172 194 198 195 194 194 191 184 184 189 190 193 192 193 197 200 198 201 191 205 208 324 1 54 40 53 36 33 21
238 253 214 232 231 245 250 268 279 213 175 195 210 173 154 164 186 193 202 204 203 201 195 188 191 194 194 193 195 194 196 193 200 202 199 186 184 218 88 70 81 47 15 8
235 231 230 237 241 260 250 278 260 228 233 215 253 257 130 156 175 188 201 206 208 201 199 193 192 195 196 194 187 188 192 194 196 201 205 211 227 259 326 320 51 39 46 282
219 216 235 244 253 263 279 243 239 242 249 250 231 265 129 146 180 188 197 205 202 195 197 196 193 192 195 191 186 184 186 190 191 197 199 215 229 238 241 253 101 285 183 230
232 219 246 257 250 237 198 203 211 228 244 249 262 258 197 133 186 180 176 184 189 186 191 193 192 188 192 189 187 184 182 187 187 191 195 212 223 237 256 261 268 268 240 224
215 216 214 226 225 204 224 237 234 231 232 241 177 243 37 64 62 76 155 177 180 180 185 187 189 190 193 192 189 185 183 190 191 193 196 204 211 219 230 258 259 278 282 270
212 206 198 210 230 233 232 250 262 273 272 224 187 226 114 91 93 107 134 155 158 168 178 182 185 189 192 190 189 183 183 190 194 198 199 206 213 222 228 239 270 275 288 299
220 201 169 193 217 235 226 243 272 268 269 270 220 174 163 144 138 131 126 133 143 151 161 170 178 182 187 188 190 189 183 185 190 196 200 202 211 230 243 241 248 268 286 287
236 218 191 181 193 207 259 245 237 250 265 261 231 224 203 175 198 165 135 117 123 135 149 160 171 181 186 190 189 189 184 184 187 190 201 193 200 216 232 244 261 284 298 304
230 224 197 195 214 210 201 220 243 254 269 274 265 216 70 177 187 186 152 100 103 127 134 147 154 169 181 185 184 185 187 184 184 188 194 201 196 204 224 231 245 270 282 289
222 234 223 208 193 255 234 237 235 246 250 270 280 270 101 126 159 153 117 99 95 106 111 119 131 143 166 182 184 181 185 187 189 189 191 195 197 198 225 237 256 271 272 281
197 225 220 207 198 203 224 230 238 251 253 261 265 212 119 126 136 134 115 102 105 102 93 90 98 120 151 176 185 184 186 189 193 188 186 179 182 191 226 243 249 267 283 288
214 226 241 246 239 198 210 219 227 240 248 251 258 246 174 157 163 159 140 119 96 92 92 87 87 97 108 147 172 188 189 188 188 189 188 184 189 197 221 239 248 257 271 283
219 227 231 248 253 245 235 229 223 234 254 265 265 262 252 193 175 163 162 153 114 90 70 57 50 57 71 120 158 172 185 190 189 192 196 196 199 200 213 232 252 264 272 277
215 224 218 225 224 229 238 238 233 235 244 249 258 266 352 113 148 151 159 155 124 74 40 28 27 32 29 73 170 183 190 190 191 198 203 195 198 204 213 221 230 246 259 269
198 209 228 229 217 230 236 239 239 232 236 248 259 275 137 167 166 168 169 176 193 16 19 19 12 1 341 308 201 200 199 191 192 203 206 201 203 212 217 230 230 241 249 254
203 219 233 236 220 239 241 175 246 232 237 266 278 108 159 182 164 138 119 118 344 1 8 15 6 354 339 325 213 195 188 191 188 203 215 215 208 210 217 224 236 242 247 253
212 220 239 242 237 236 199 176 211 227 233 268 258 218 180 151 168 124 64 34 20 18 15 18 17 343 338 325 183 185 185 180 187 203 216 213 205 208 216 223 233 243 246 251
184 220 239 240 249 250 188 122 195 236 214 101 85 190 180 202 237 65 44 23 26 33 32 27 25 11 355 331 212 211 208 203 208 210 210 202 204 210 218 226 232 231 238 249
197 212 232 240 248 243 74 113 202 234 265 71 309 263 226 247 336 50 46 41 45 44 39 33 28 19 3 331 235 224 229 226 221 206 193 196 210 217 222 225 225 225 231 250
219 221 224 237 244 229 78 155 237 5 29 74 219 254 286 41 50 68 57 46 35 26 22 16 10 354 338 312 266 262 268 268 248 226 209 206 219 232 214 212 229 236 240 240
228 261 249 257 298 71 80 58 43 16 10 42 183 85 100 108 90 75 45 34 26 11 353 336 327 327 321 308 280 273 283 273 248 234 220 217 221 226 232 220 226 237 240 250
180 212 217 215 167 109 97 93 75 43 21 21 107 117 99 77 71 56 28 13 9 355 337 326 322 322 326 319 299 279 265 251 240 231 227 216 217 222 223 238 240 247 255 259
189 193 208 216 186 155 143 114 89 77 81 87 86 80 66 62 48 10 343 349 345 336 326 320 318 323 326 325 319 306 285 248 240 239 230 224 224 224 224 230 249 251 262 272
211 220 232 237 198 244 200 104 100 94 97 104 99 74 44 27 6 357 350 340 326 325 322 316 315 316 309 303 301 297 283 257 249 248 248 251 243 234 237 237 237 219 239 200
Height
1509 1506 1504 1502 1501 1502 1502 1503 1505 1504 1504 1506 1507 1508 1510 1514 1517 1518 1521 1523 1525 1527 1529 1531 1531 1532 1532 1533 1533 1533 1534 1534 1534 1535 1535 1536 1536 1536 1535 1535 1534 1534 1533 1533
1506 1505 1501 1501 1502 1502 1502 1504 1504 1505 1505 1506 1506 1507 1508 1512 1514 1516 1519 1521 1523 1525 1528 1529 1530 1531 1532 1532 1532 1533 1533 1534 1535 1535 1535 1535 1536 1536 1536 1536 1535 1534 1534 1534
1504 1501 1502 1503 1502 1503 1501 1502 1503 1506 1505 1504 1506 1509 1508 1510 1513 1515 1517 1519 1521 1523 1525 1527 1529 1530 1531 1531 1532 1533 1533 1534 1534 1535 1536 1536 1536 1536 1536 1536 1535 1535 1534 1534
1500 1501 1503 1501 1501 1501 1503 1500 1501 1503 1506 1505 1506 1514 1506 1506 1510 1512 1515 1517 1519 1521 1523 1525 1527 1528 1529 1530 1531 1532 1532 1533 1533 1534 1535 1536 1536 1536 1536 1536 1535 1535 1534 1534
1499 1500 1502 1502 1501 1500 1500 1500 1500 1500 1502 1504 1503 1509 1506 1504 1508 1509 1512 1514 1516 1519 1521 1523 1525 1526 1528 1529 1530 1531 1531 1532 1532 1533 1534 1534 1535 1536 1536 1535 1534 1534 1533 1533
1497 1500 1500 1500 1500 1500 1500 1501 1500 1499 1498 1513 1506 1511 1512 1503 1506 1505 1509 1512 1514 1516 1519 1521 1523 1524 1526 1528 1529 1529 1530 1531 1531 1532 1533 1533 1534 1534 1534 1533 1533 1533 1533 1532
1499 1498 1498 1500 1501 1500 1500 1503 1512 1515 1513 1512 1502 1509 1510 1502 1504 1506 1508 1511 1513 1515 1517 1519 1521 1522 1524 1525 1526 1528 1528 1529 1530 1531 1531 1532 1532 1532 1532 1532 1532 1532 1532 1532
1501 1502 1496 1497 1498 1499 1498 1498 1512 1522 1517 1507 1505 1510 1504 1503 1506 1508 1509 1510 1511 1513 1515 1517 1518 1520 1522 1523 1524 1525 1526 1527 1529 1529 1530 1530 1531 1532 1532 1531 1531 1531 1531 1530
1494 1499 1494 1496 1496 1496 1499 1497 1492 1500 1504 1510 1504 1504 1503 1503 1505 1507 1508 1509 1510 1512 1514 1515 1517 1519 1520 1521 1522 1523 1524 1525 1526 1527 1528 1528 1529 1529 1530 1530 1530 1530 1529 1529
1488 1498 1493 1495 1496 1498 1495 1493 1497 1501 1517 1518 1510 1506 1503 1504 1504 1504 1506 1508 1510 1511 1513 1514 1516 1517 1518 1519 1521 1522 1522 1523 1525 1525 1526 1527 1527 1527 1527 1528 1528 1528 1527 1527
1486 1495 1496 1495 1496 1494 1498 1497 1496 1496 1500 1509 1514 1508 1495 1499 1501 1503 1505 1508 1509 1511 1512 1513 1515 1516 1517 1518 1519 1520 1521 1522 1523 1524 1524 1525 1525 1526 1526 1526 1526 1525 1525 1525
1488 1489 1494 1492 1490 1492 1491 1492 1494 1502 1506 1503 1505 1507 1495 1498 1501 1504 1505 1508 1510 1511 1512 1513 1514 1514 1515 1516 1517 1518 1519 1520 1521 1522 1522 1523 1523 1524 1524 1524 1524 1524 1524 1523
1489 1492 1503 1501 1499 1495 1493 1491 1491 1491 1495 1500 1505 1506 1496 1499 1502 1504 1506 1508 1510 1511 1512 1512 1513 1513 1514 1514 1515 1516 1517 1518 1519 1520 1520 1521 1521 1522 1522 1523 1522 1522 1522 1522
1489 1489 1494 1499 1493 1488 1493 1492 1491 1492 1496 1497 1498 1498 1496 1498 1501 1504 1506 1508 1510 1511 1512 1512 1512 1513 1513 1513 1513 1514 1515 1516 1517 1518 1519 1519 1519 1520 1521 1521 1521 1520 1520 1520
1488 1489 1489 1487 1485 1486 1488 1489 1490 1492 1490 1493 1493 1493 1494 1496 1501 1504 1506 1508 1510 1511 1511 1512 1512 1512 1512 1512 1512 1512 1513 1514 1514 1516 1517 1517 1518 1518 1518 1519 1519 1519 1518 1518
1488 1490 1489 1491 1487 1487 1490 1488 1488 1489 1489 1490 1491 1493 1493 1498 1501 1504 1506 1507 1508 1510 1510 1511 1511 1511 1511 1511 1511 1511 1511 1512 1513 1514 1515 1515 1516 1516 1516 1516 1516 1516 1516 1515
1486 1491 1494 1492 1488 1490 1495 1489 1487 1488 1487 1488 1491 1493 1495 1498 1501 1503 1505 1507 1508 1509 1510 1510 1510 1510 1510 1510 1510 1509 1510 1510 1510 1511 1512 1513 1513 1514 1514 1514 1514 1514 1514 1513
1491 1492 1490 1489 1495 1507 1491 1485 1486 1488 1489 1488 1490 1493 1496 1499 1502 1504 1505 1506 1507 1508 1509 1509 1509 1509 1509 1509 1508 1508 1508 1508 1508 1509 1510 1511 1510 1511 1511 1511 1512 1511 1511 1511
1490 1491 1490 1490 1494 1492 1489 1488 1488 1490 1492 1491 1492 1495 1497 1499 1500 1502 1505 1506 1507 1508 1508 1508 1508 1508 1508 1507 1507 1506 1506 1506 1507 1507 1508 1508 1508 1508 1508 1508 1508 1509 1509 1508
1491 1490 1489 1492 1497 1498 1489 1488 1491 1492 1495 1495 1496 1496 1498 1499 1497 1501 1505 1505 1506 1507 1507 1507 1507 1507 1506 1506 1505 1505 1505 1505 1505 1506 1506 1506 1506 1506 1506 1505 1505 1505 1505 1505
1489 1491 1490 1491 1493 1487 1488 1490 1492 1497 1496 1497 1497 1498 1499 1500 1500 1503 1504 1505 1505 1506 1506 1506 1506 1505 1505 1504 1504 1504 1504 1503 1503 1504 1504 1504 1504 1504 1503 1503 1503 1502 1502 1502
1486 1486 1490 1489 1493 1493 1492 1490 1492 1496 1497 1497 1498 1499 1500 1501 1502 1503 1504 1504 1505 1505 1505 1505 1504 1504 1503 1503 1503 1503 1502 1502 1502 1502 1502 1502 1502 1502 1502 1501 1500 1500 1500 1499
1484 1485 1483 1488 1491 1493 1494 1495 1497 1498 1498 1498 1499 1500 1501 1501 1502 1503 1503 1504 1504 1504 1503 1503 1503 1502 1502 1502 1501 1501 1501 1501 1500 1500 1500 1499 1500 1499 1499 1498 1498 1497 1497 1497
1487 1490 1488 1490 1490 1493 1495 1496 1497 1498 1499 1499 1500 1500 1501 1501 1502 1502 1502 1503 1503 1502 1502 1501 1501 1500 1500 1500 1500 1500 1499 1498 1498 1497 1497 1497 1497 1497 1496 1496 1496 1495 1495 1494
1486 1489 1488 1490 1492 1494 1496 1497 1498 1498 1499 1499 1500 1501 1501 1501 1501 1501 1501 1501 1501 1500 1500 1499 1499 1498 1498 1497 1497 1497 1497 1496 1495 1495 1494 1494 1494 1494 1493 1493 1493 1492 1492 1491
1488 1488 1488 1488 1492 1493 1495 1497 1498 1498 1499 1500 1500 1500 1501 1501 1501 1500 1500 1500 1499 1498 1498 1497 1496 1496 1495 1495 1495 1494 1494 1493 1493 1492 1492 1492 1492 1491 1491 1490 1490 1488 1488 1488